Wind_Speed
0 1 3 3 4 6 5 6 7 8 8 9 7 9 6 7 8 9 9 10 12 13 14 14 16 15 15 16 17 18 19 19 19 19 18 19 18 19 18 19 19 21 20
1 2 2 4 4 6 6 7 7 7 7 8 8 6 4 5 7 9 9 11 12 13 14 13 15 15 14 15 17 18 19 19 19 20 20 19 19 19 17 18 19 19 20
5 4 3 3 6 4 5 5 6 7 6 7 7 6 6 4 5 8 8 11 12 14 14 14 16 15 14 16 16 18 18 18 20 20 19 19 19 20 20 19 20 20 21
7 5 4 4 8 3 5 5 6 7 7 8 8 7 5 4 6 5 7 10 10 14 16 14 15 15 14 16 17 18 18 19 20 20 21 19 20 22 23 23 21 21 21
10 7 6 6 8 3 4 6 6 7 8 9 11 8 6 7 7 4 7 8 9 12 14 14 15 14 14 15 17 17 19 21 21 21 21 21 22 22 24 25 23 22 21
12 12 10 9 9 5 4 6 6 6 8 9 14 10 10 9 6 6 9 6 9 12 15 14 15 15 14 15 16 17 19 20 21 21 22 22 23 24 25 25 25 23 22
13 14 12 10 10 8 6 8 6 7 7 8 10 12 5 10 5 6 2 7 11 10 14 14 14 16 16 16 15 18 19 20 21 22 23 23 23 24 25 26 25 24 23
18 17 15 12 11 11 10 8 7 7 6 4 4 8 3 2 1 13 6 6 12 11 17 10 17 15 16 15 16 17 22 22 23 25 25 24 24 24 23 24 25 24 23
21 20 17 15 14 14 13 10 10 8 7 7 5 1 2 2 10 3 8 4 15 15 17 16 14 15 13 14 20 23 22 23 26 26 25 23 23 23 24 24 25 25 23
22 22 21 20 18 16 15 13 12 11 9 9 6 8 7 6 2 4 4 16 16 13 16 13 17 13 10 17 21 21 20 25 25 25 23 23 24 23 23 24 24 23 23
24 24 23 22 20 19 18 16 14 15 12 12 11 9 7 9 12 10 6 4 15 17 16 19 16 12 12 17 21 20 21 22 24 22 23 23 23 23 24 24 25 23 22
24 25 25 25 23 22 21 20 18 17 16 15 14 13 12 9 7 9 3 12 16 17 19 17 17 9 17 18 20 19 19 23 23 22 24 23 23 23 24 23 24 22 22
29 29 27 28 28 26 23 21 20 19 19 19 18 17 16 17 16 15 15 15 9 20 15 15 18 12 17 16 22 21 20 24 23 24 22 21 22 24 22 24 23 23 25
31 28 28 28 29 27 27 26 24 23 21 21 20 20 19 19 17 16 16 13 5 6 16 12 15 15 19 19 23 19 22 22 23 22 20 19 21 22 24 24 24 26 27
31 28 29 29 29 29 27 25 26 26 24 23 23 22 22 21 20 19 17 16 12 4 4 6 11 21 18 21 16 18 22 24 20 20 19 17 20 20 21 23 23 23 25
30 30 31 31 30 29 29 28 28 27 26 25 25 24 23 21 20 20 19 18 17 16 4 14 22 21 20 20 18 18 20 18 23 20 17 18 19 19 20 21 22 22 25
34 32 31 32 32 31 30 31 31 30 29 28 27 26 25 23 23 21 20 18 19 19 15 21 21 21 22 20 19 15 19 18 26 19 17 18 20 19 20 19 21 22 24
32 32 33 33 34 34 33 33 33 31 31 30 29 28 28 25 26 24 23 22 21 21 21 20 23 22 20 22 16 15 15 21 22 18 18 16 18 18 17 16 19 22 23
33 33 33 35 34 35 34 35 35 34 32 32 31 30 30 27 28 27 25 24 23 22 21 21 21 22 21 18 14 15 18 22 25 20 13 16 16 16 16 15 17 21 23
32 33 35 35 36 36 35 35 35 35 34 34 33 31 31 30 29 29 27 26 23 22 20 21 18 19 21 13 15 16 21 21 27 15 10 20 15 14 15 14 16 19 22
30 32 33 33 35 35 36 37 37 36 36 35 33 33 33 32 31 29 29 28 24 22 20 17 19 21 17 12 11 12 16 20 22 10 19 23 18 16 15 17 16 18 21
27 29 31 34 34 38 38 38 38 39 37 37 37 36 34 31 28 28 28 26 23 24 21 21 18 18 14 11 10 11 14 15 6 8 25 28 15 19 18 15 15 17 22
26 29 33 34 36 38 37 37 37 37 38 38 38 36 34 34 33 31 30 27 27 27 26 26 25 24 17 14 13 14 12 13 15 22 18 19 20 21 20 20 12 16 21
25 28 31 33 36 39 38 37 36 35 36 38 38 38 37 36 33 31 30 30 30 30 30 28 27 26 22 19 15 12 15 17 19 18 13 10 19 20 23 10 11 14 19
25 28 30 32 34 38 37 35 33 34 36 40 40 37 37 37 35 29 29 32 30 30 25 22 22 23 17 15 16 16 17 14 14 12 12 9 11 21 14 9 20 11 18
25 26 29 31 33 35 35 35 34 34 33 32 36 36 39 40 37 31 31 32 31 32 27 24 22 21 19 20 17 17 16 15 12 7 1 6 9 13 8 5 19 15 18
Wind_Direction
13 30 333 338 355 352 358 17 7 13 12 8 353 5 13 1 12 11 13 12 11 12 10 9 9 5 0 359 358 353 351 347 345 342 338 335 334 331 323 316 312 309 312
262 268 311 331 327 333 11 5 358 359 356 356 353 356 356 2 18 4 3 14 7 7 7 4 2 0 357 359 355 350 347 343 343 340 339 335 335 332 325 318 312 309 306
217 254 285 303 297 327 350 346 352 360 352 353 341 343 341 330 336 358 352 2 350 4 3 360 355 352 354 354 350 348 344 341 341 339 336 331 333 331 323 320 313 310 308
236 216 247 272 291 338 337 332 347 343 345 344 336 338 331 318 321 339 340 350 353 357 358 355 350 348 349 346 344 341 341 339 336 335 333 329 332 332 326 325 321 317 313
230 229 220 240 272 273 305 318 323 328 334 333 333 313 296 298 304 312 328 336 346 354 353 346 348 349 345 343 341 341 340 336 336 333 332 325 327 328 324 317 321 319 320
232 226 221 236 249 245 272 272 302 316 327 323 326 314 290 277 282 305 306 310 334 337 341 344 345 340 342 342 341 342 342 338 334 332 325 325 320 320 319 315 312 319 322
235 237 231 228 242 250 243 273 301 312 316 323 336 330 325 249 235 324 319 308 328 319 340 333 332 335 339 339 338 340 340 336 334 332 328 321 320 316 310 312 309 311 317
230 237 238 234 236 246 248 263 262 289 302 330 332 323 339 165 312 301 336 297 336 314 329 321 329 334 338 338 342 339 335 333 330 330 327 321 318 315 311 310 308 305 311
232 232 231 236 235 238 243 244 251 258 267 287 265 270 7 288 347 184 343 329 336 329 330 328 327 327 328 324 324 330 335 334 330 328 325 323 319 318 316 312 310 306 306
233 234 236 231 231 237 243 241 243 248 243 255 281 243 228 245 215 316 288 307 318 328 325 328 329 322 286 306 329 329 333 332 331 329 324 325 324 319 315 311 310 307 308
233 232 235 237 234 235 236 241 239 236 244 248 249 262 260 258 259 252 282 284 319 317 332 331 327 305 297 322 337 330 329 331 334 333 328 325 323 320 318 315 311 313 312
228 231 231 233 233 234 235 235 236 238 238 243 249 250 252 249 257 277 292 307 310 318 324 331 329 318 325 327 334 332 327 332 335 333 329 325 325 321 318 316 313 316 318
222 228 229 228 230 229 234 236 238 239 240 239 241 245 250 253 260 268 276 289 293 308 317 322 333 342 331 323 337 339 328 333 333 330 329 324 323 324 321 319 324 328 326
231 233 232 232 230 232 230 231 233 235 236 240 242 242 248 252 255 261 268 281 301 282 309 305 315 319 326 313 329 334 329 333 330 331 327 325 323 325 324 329 331 329 328
233 231 232 232 231 230 229 230 233 236 239 241 243 245 246 253 256 258 259 262 261 289 303 301 315 320 319 321 323 324 327 330 328 329 326 325 323 322 324 327 326 326 325
229 227 227 230 231 230 227 228 231 235 235 239 243 245 245 247 250 255 258 256 257 262 260 279 299 309 313 315 316 313 323 326 330 329 322 325 323 319 322 327 329 329 330
229 226 225 227 227 229 228 228 230 233 234 237 238 240 243 246 246 247 253 257 255 255 257 280 290 301 305 306 309 310 328 319 328 332 325 318 326 319 323 326 329 333 333
230 231 231 231 230 231 231 229 230 229 231 235 238 239 242 243 247 247 249 250 253 259 262 271 287 296 300 304 306 310 320 321 328 332 327 321 324 324 324 327 334 338 337
229 225 229 231 232 234 232 233 233 232 231 235 238 239 242 241 245 245 245 247 249 254 257 265 276 286 295 295 308 307 313 327 329 331 328 331 323 325 327 332 340 340 342
233 230 227 230 233 233 235 235 234 233 234 236 236 237 240 241 242 244 244 245 245 250 253 260 270 282 288 287 303 305 316 330 330 340 329 332 330 332 328 328 330 347 347
239 240 236 233 231 232 234 235 235 234 233 234 238 240 239 240 243 247 245 245 242 244 250 249 271 273 276 293 293 306 311 325 332 336 326 343 341 338 338 338 335 348 346
238 242 243 240 239 235 234 233 236 234 234 235 237 238 240 240 240 243 244 245 244 240 244 244 253 264 277 291 295 302 317 325 332 323 329 327 335 330 331 321 328 342 346
243 241 242 241 242 242 239 236 233 234 235 236 239 238 239 240 241 242 242 245 245 244 246 250 254 258 265 280 291 299 299 293 297 306 314 311 321 328 339 341 330 336 348
248 249 248 248 248 249 246 242 234 233 234 238 240 239 237 238 238 239 240 245 244 241 242 247 253 258 258 267 273 277 287 292 292 308 313 291 324 327 336 352 351 345 353
244 245 250 250 248 252 250 245 235 231 234 235 236 237 236 237 241 233 235 237 243 244 245 245 249 252 248 246 260 272 272 280 297 310 313 280 318 333 339 14 358 1 1
257 256 257 255 254 254 252 248 240 234 233 230 236 237 236 236 237 228 226 232 234 239 236 241 238 238 246 252 252 252 260 258 273 319 174 319 319 354 329 334 351 355 5
Height
885 885 885 885 884 883 882 881 880 879 878 878 877 876 876 875 874 873 872 871 869 867 865 863 861 860 859 857 854 853 851 850 847 844 841 839 838 836 834 832 830 828 827
885 885 885 884 883 882 881 880 880 878 878 877 876 875 875 876 874 873 872 869 869 867 864 863 861 860 858 856 854 852 850 849 846 843 840 838 835 833 832 830 828 826 823
884 884 885 884 882 881 880 879 879 878 878 877 876 875 874 874 874 872 871 870 868 866 864 863 862 860 857 854 854 851 849 847 844 842 840 837 834 832 829 827 825 823 820
881 882 882 883 882 881 881 880 879 878 877 876 875 874 873 874 873 872 871 869 867 866 864 863 862 859 856 854 853 850 848 845 843 841 838 834 831 830 827 824 821 819 817
878 879 880 880 880 880 880 879 878 877 876 875 873 872 872 871 870 870 870 869 868 866 865 863 861 858 856 854 852 850 847 844 841 838 835 833 830 827 825 822 819 816 813
875 876 876 877 878 878 878 878 877 876 875 874 872 870 869 868 868 868 868 868 867 865 863 861 859 857 855 853 852 849 846 843 840 836 834 831 828 825 823 820 816 813 810
874 875 875 875 875 875 876 875 875 875 874 873 870 868 865 866 866 866 866 865 864 863 861 859 858 856 854 852 850 847 844 841 838 835 831 828 825 823 820 817 813 810 807
871 871 872 873 874 874 874 874 874 874 873 872 871 870 868 867 866 865 864 863 863 861 860 858 857 856 853 850 847 845 841 838 834 831 828 824 821 819 816 813 810 806 803
866 867 869 869 870 871 871 872 872 872 872 872 871 871 873 872 866 863 863 862 861 860 858 856 855 853 851 848 846 843 839 836 832 828 825 822 819 816 812 809 806 803 800
863 864 865 865 867 868 868 869 869 870 870 870 870 868 868 869 869 868 860 859 860 858 856 854 852 850 848 846 844 841 838 834 831 827 823 819 816 813 810 807 803 799 796
857 859 860 862 863 864 865 866 866 866 867 867 867 866 866 866 865 864 860 857 857 856 854 851 848 846 844 843 840 838 836 833 829 824 821 817 814 811 807 803 799 795 793
850 852 854 855 858 859 860 861 862 862 862 862 863 863 863 863 861 861 859 855 853 850 850 848 846 843 841 839 837 835 833 830 825 822 818 815 812 809 805 800 796 792 789
842 844 847 849 850 853 855 858 858 858 858 857 857 857 857 857 857 857 856 854 852 848 847 845 844 841 839 836 834 832 830 827 823 820 817 813 810 806 802 797 793 789 785
836 838 840 842 844 846 848 850 852 853 853 853 852 852 852 852 852 852 852 852 850 847 845 844 842 840 837 834 831 829 827 825 822 818 815 811 808 804 799 795 791 786 782
831 833 834 835 838 840 841 843 845 846 848 848 848 848 847 847 848 848 847 847 848 849 844 840 839 837 835 832 830 827 824 823 820 816 813 809 806 802 798 794 790 785 780
826 827 828 830 831 833 836 837 837 839 840 841 842 842 842 841 842 843 843 843 843 843 842 838 836 834 832 830 827 824 821 819 816 813 810 807 803 799 796 792 787 782 776
819 822 824 825 826 827 829 831 832 832 833 834 836 836 836 837 836 836 838 838 838 838 836 832 832 831 828 825 823 821 818 815 812 809 807 804 800 797 793 789 785 780 774
812 817 820 821 822 822 823 824 824 825 827 828 828 830 829 831 831 831 831 831 832 832 832 828 827 826 824 821 819 817 814 812 809 806 804 801 798 794 790 787 783 778 772
803 803 808 812 814 816 817 818 819 819 820 820 822 824 824 825 825 825 825 824 825 826 825 824 821 821 819 818 816 814 812 809 806 802 800 798 794 791 788 785 781 776 771
799 798 797 801 804 807 810 810 811 813 814 814 815 814 816 818 817 819 819 819 819 820 820 818 817 816 815 814 812 810 807 805 801 798 797 795 791 789 786 782 778 774 769
794 797 796 794 795 798 800 802 804 804 805 806 808 809 808 810 812 813 813 813 814 814 814 813 813 812 810 809 808 807 804 802 799 796 793 790 787 785 783 780 776 772 768
787 791 792 792 790 788 789 790 793 795 796 797 798 799 801 803 804 806 807 808 809 809 808 808 808 808 806 806 805 804 802 800 798 795 791 786 785 782 780 777 775 772 767
781 780 782 783 782 781 781 783 786 788 788 787 788 790 793 795 796 796 799 801 802 803 803 803 802 802 802 802 801 800 800 798 797 794 791 784 782 779 777 774 772 770 766
776 777 776 777 777 774 776 775 777 780 779 779 780 780 781 783 786 788 789 792 794 794 795 796 796 796 796 798 797 797 796 794 792 791 789 784 779 776 774 772 771 769 765
762 762 764 765 766 765 768 769 771 770 768 768 768 771 773 773 776 781 782 783 785 786 789 790 790 791 792 793 793 793 792 792 789 786 786 784 779 775 772 771 769 767 764
758 757 756 755 755 754 754 758 762 763 759 758 760 761 763 765 767 770 773 775 777 777 782 784 785 786 787 787 788 787 788 787 788 785 784 784 780 778 773 770 769 767 764